Probability
0 0 0 0 0 0 0 0 0 0 0 0 0 0 0 0 0 0 0 0 0 0 0 0 0 0 0 0 0 0 0 0 0 0 0 0 0 0 0 0 0 0 0 0
0 0 0 0 0 0 0 0 0 0 0 0 0 0 0 0 0 0 0 0 0 0 0 0 0 0 0 0 0 0 0 0 0 0 0 0 0 0 0 0 0 0 0 0
0 0 0 0 0 0 0 0 0 0 0 0 0 0 0 0 0 0 0 0 0 0 0 0 0 0 0 0 0 0 0 0 0 0 0 0 0 0 0 0 0 0 0 0
0 0 0 0 0 0 0 0 0 0 0 0 0 0 0 0 0 0 0 0 0 0 0 0 0 0 0 0 0 0 0 0 0 0 0 0 0 0 0 0 0 0 0 0
0 0 0 0 0 0 0 0 0 0 0 0 0 0 0 0 0 0 0 0 0 0 0 0 0 0 0 0 0 0 0 0 0 0 0 0 0 0 0 0 0 0 0 0
0 0 0 0 0 0 0 0 0 0 0 0 0 0 0 0 0 0 0 0 0 0 0 0 0 0 0 0 0 0 0 0 0 0 0 0 0 0 0 0 0 0 0 0
0 0 0 0 0 0 0 0 0 0 0 0 0 0 0 0 0 0 0 0 0 0 0 0 0 0 0 0 0 0 0 0 0 0 0 0 0 0 0 0 0 0 0 0
0 0 0 0 0 0 0 0 0 0 0 0 0 0 0 0 0 0 0 0 0 0 0 0 0 0 0 0 0 0 0 0 0 0 0 0 0 0 0 0 0 0 0 0
0 0 0 0 0 0 0 0 0 0 0 0 0 0 0 0 0 0 0 0 0 0 0 0 0 0 0 0 0 0 0 0 0 0 0 0 0 0 0 0 0 0 0 0
0 0 0 0 0 0 0 0 0 0 0 0 0 0 0 0 0 0 0 0 0 0 0 0 0 0 0 0 0 0 0 0 0 0 0 0 0 0 0 0 0 0 0 0
0 0 0 0 0 0 0 0 0 0 0 0 0 0 0 0 0 0 0 0 0 0 0 0 0 0 0 0 0 0 0 0 0 0 0 0 0 0 0 0 0 0 0 0
0 0 0 0 0 0 0 0 0 0 0 0 0 0 0 0 0 0 0 0 0 0 0 0 0 0 0 0 0 0 0 0 0 0 0 0 0 0 0 0 0 0 0 0
0 0 0 0 0 0 0 0 0 0 0 0 0 0 0 0 0 0 0 0 0 0 0 0 0 0 0 0 0 0 0 0 0 0 0 0 0 0 0 0 0 0 0 0
0 0 0 0 0 0 0 0 0 0 0 0 0 0 0 0 0 0 0 0 0 0 0 0 0 0 0 0 0 0 0 0 0 0 0 0 0 0 0 0 0 0 0 0
0 0 0 0 0 0 0 0 0 0 0 0 0 0 0 0 0 0 0 0 0 0 0 0 0 0 0 0 0 0 0 0 0 0 0 0 0 0 0 0 0 0 0 0
0 0 0 0 0 0 0 0 0 0 0 0 0 0 0 0 0 0 0 0 0 0 0 0 0 0 0 0 0 0 0 0 0 0 0 0 0 0 0 0 0 0 0 0
0 0 0 0 0 0 0 0 0 0 0 0 0 0 0 0 0 0 0 0 0 0 0 0 0 0 0 0 0 0 0 0 0 0 0 0 0 0 0 0 0 0 0 0
0 0 0 0 0 0 0 0 0 0 0 0 0 0 0 0 0 0 0 0 0 0 0 0 0 0 0 0 0 0 0 0 0 0 0 0 0 0 0 0 0 0 0 0
0 0 0 0 0 0 0 0 0 0 0 0 0 0 0 0 0 0 0 0 0 0 0 0 0 0 0 0 0 0 0 0 0 0 0 0 0 0 0 0 0 0 0 0
0 0 0 0 0 0 0 0 0 0 0 0 0 0 0 0 0 0 0 0 0 0 0 0 0 0 0 0 0 0 0 0 0 0 0 0 0 0 0 0 0 0 0 0
0 0 0 0 0 0 0 0 0 0 0 0 0 0 0 0 0 0 0 0 0 0 0 0 0 0 0 0 0 0 0 0 0 0 0 0 0 0 0 0 0 0 0 0
0 0 0 0 0 0 0 0 0 0 0 0 0 0 0 0 0 0 0 0 0 0 0 0 0 0 0 0 0 0 0 0 0 0 0 0 0 0 0 0 0 0 0 0
0 0 0 0 0 0 0 0 0 0 0 0 0 0 0 0 0 0 0 0 0 0 0 0 0 0 0 0 0 0 0 0 0 0 0 0 0 0 0 0 0 0 0 0
0 0 0 0 0 0 0 0 0 0 0 0 0 0 0 0 0 0 0 0 0 0 0 0 0 0 0 0 0 0 0 0 0 0 0 0 0 0 0 0 0 0 0 0
0 0 0 0 0 0 0 0 0 0 0 0 0 0 0 0 0 0 0 0 0 0 0 0 0 0 0 0 0 0 0 0 0 0 0 0 0 0 0 0 0 0 0 0
0 0 0 0 0 0 0 0 0 0 0 0 0 0 0 0 0 0 0 0 0 0 0 0 0 0 0 0 0 0 0 0 0 0 0 0 0 0 0 0 0 0 0 0
0 0 0 0 0 0 0 0 0 0 0 0 0 0 0 0 0 0 0 0 0 0 0 0 0 0 0 0 0 0 0 0 0 0 0 0 0 0 0 0 0 0 0 0
Height
5597 5592 5586 5581 5576 5569 5561 5554 5548 5543 5537 5533 5527 5521 5516 5511 5506 5502 5497 5494 5491 5490 5489 5488 5487 5488 5488 5489 5491 5494 5497 5503 5508 5513 5520 5526 5533 5541 5549 5557 5565 5573 5581 5588
5589 5584 5577 5573 5569 5562 5555 5548 5541 5535 5531 5526 5519 5514 5509 5503 5499 5494 5490 5487 5485 5483 5483 5482 5482 5482 5483 5484 5487 5490 5494 5499 5504 5509 5514 5520 5527 5535 5543 5551 5558 5565 5573 5580
5578 5574 5568 5565 5561 5553 5547 5541 5534 5528 5524 5517 5512 5507 5501 5496 5491 5487 5483 5480 5478 5476 5476 5476 5476 5477 5478 5480 5482 5486 5489 5494 5499 5504 5509 5514 5521 5529 5537 5544 5551 5558 5566 5573
5566 5563 5558 5559 5550 5544 5538 5534 5526 5520 5515 5509 5504 5499 5494 5489 5484 5480 5477 5474 5471 5470 5469 5469 5470 5471 5472 5474 5477 5480 5483 5488 5492 5498 5502 5508 5515 5523 5530 5537 5543 5550 5558 5565
5556 5550 5547 5549 5541 5533 5528 5526 5519 5512 5506 5501 5496 5491 5488 5482 5477 5473 5470 5467 5465 5463 5463 5463 5463 5464 5466 5468 5470 5473 5477 5481 5486 5491 5496 5503 5509 5516 5523 5530 5536 5543 5550 5558
5546 5539 5536 5538 5530 5522 5518 5515 5511 5504 5498 5492 5487 5483 5481 5475 5470 5466 5462 5460 5458 5457 5456 5456 5456 5457 5460 5462 5464 5467 5471 5475 5480 5484 5490 5496 5502 5509 5516 5522 5529 5536 5543 5551
5536 5528 5526 5527 5520 5513 5508 5506 5499 5494 5489 5483 5478 5474 5470 5466 5461 5458 5455 5453 5451 5450 5449 5449 5449 5450 5452 5455 5458 5461 5464 5468 5473 5478 5483 5489 5496 5502 5508 5515 5522 5529 5537 5545
5526 5520 5520 5515 5509 5504 5500 5494 5489 5484 5479 5474 5469 5465 5461 5456 5453 5449 5447 5445 5443 5442 5441 5441 5442 5443 5445 5448 5450 5454 5457 5462 5466 5471 5476 5482 5489 5495 5502 5508 5515 5522 5530 5537
5517 5515 5510 5504 5498 5493 5489 5484 5480 5475 5470 5465 5460 5456 5452 5448 5444 5441 5439 5436 5434 5433 5433 5434 5435 5436 5438 5440 5443 5447 5450 5454 5459 5464 5469 5475 5481 5488 5494 5501 5508 5515 5523 5530
5506 5504 5499 5493 5488 5483 5479 5474 5470 5465 5460 5455 5451 5447 5443 5439 5436 5433 5430 5428 5426 5425 5425 5426 5427 5429 5431 5433 5436 5440 5444 5447 5452 5457 5462 5468 5474 5480 5487 5494 5501 5509 5516 5524
5494 5493 5488 5484 5478 5474 5469 5464 5460 5455 5451 5446 5441 5438 5434 5431 5428 5425 5422 5420 5419 5418 5417 5418 5420 5422 5424 5427 5430 5433 5437 5441 5445 5450 5455 5461 5467 5473 5480 5487 5494 5502 5509 5517
5484 5481 5476 5473 5469 5464 5460 5455 5450 5446 5441 5437 5432 5429 5425 5422 5419 5417 5415 5413 5411 5411 5411 5411 5413 5415 5417 5420 5423 5426 5430 5434 5438 5443 5448 5454 5461 5467 5473 5480 5487 5495 5502 5510
5472 5469 5464 5461 5458 5453 5449 5445 5440 5435 5431 5427 5424 5420 5417 5414 5411 5409 5407 5405 5404 5403 5404 5404 5406 5408 5410 5413 5416 5420 5423 5427 5431 5436 5442 5448 5454 5461 5467 5474 5481 5488 5496 5503
5461 5457 5453 5450 5447 5443 5438 5434 5429 5425 5421 5417 5414 5411 5408 5405 5403 5401 5399 5398 5397 5397 5397 5398 5400 5402 5404 5407 5410 5413 5417 5420 5425 5430 5435 5441 5448 5455 5462 5468 5475 5482 5489 5497
5449 5445 5442 5439 5435 5431 5427 5423 5419 5415 5411 5408 5405 5402 5399 5397 5395 5394 5392 5391 5390 5390 5391 5392 5394 5396 5398 5401 5404 5407 5411 5415 5419 5424 5429 5435 5442 5448 5455 5462 5469 5476 5483 5490
5438 5434 5430 5427 5424 5421 5417 5413 5409 5406 5402 5399 5396 5394 5391 5389 5387 5386 5386 5385 5384 5385 5385 5387 5389 5391 5393 5395 5398 5401 5405 5409 5413 5418 5424 5429 5436 5442 5449 5456 5463 5470 5477 5484
5427 5423 5420 5417 5414 5410 5407 5404 5400 5397 5393 5391 5388 5386 5383 5382 5381 5380 5379 5379 5378 5379 5380 5381 5383 5385 5387 5390 5393 5396 5400 5404 5408 5413 5419 5424 5430 5436 5443 5450 5457 5464 5471 5478
5416 5413 5411 5408 5405 5401 5398 5395 5391 5388 5385 5382 5380 5378 5376 5375 5374 5373 5373 5373 5373 5373 5374 5375 5377 5380 5382 5384 5387 5391 5395 5399 5403 5408 5414 5420 5425 5431 5437 5444 5451 5458 5465 5472
5407 5404 5402 5399 5395 5392 5389 5386 5383 5380 5377 5375 5373 5371 5370 5368 5368 5367 5367 5367 5367 5368 5368 5369 5371 5374 5377 5379 5382 5386 5390 5394 5399 5404 5409 5415 5421 5426 5432 5438 5445 5452 5458 5466
5397 5395 5392 5389 5386 5384 5381 5378 5375 5372 5369 5367 5366 5364 5363 5363 5362 5361 5361 5361 5361 5362 5363 5364 5367 5369 5372 5374 5377 5381 5385 5389 5394 5399 5404 5410 5415 5421 5427 5433 5439 5446 5453 5460
5389 5386 5383 5380 5378 5375 5372 5369 5366 5364 5362 5360 5359 5358 5357 5357 5356 5355 5355 5355 5355 5356 5357 5359 5361 5364 5367 5369 5372 5376 5380 5384 5389 5394 5399 5404 5410 5416 5422 5428 5435 5441 5448 5456
5379 5377 5374 5372 5369 5366 5364 5361 5359 5357 5355 5353 5352 5352 5351 5351 5350 5350 5349 5350 5350 5351 5352 5354 5356 5359 5361 5364 5368 5371 5375 5379 5384 5389 5394 5400 5405 5412 5418 5424 5430 5437 5444 5451
5370 5368 5365 5363 5360 5358 5355 5353 5351 5349 5348 5346 5346 5345 5345 5345 5344 5344 5344 5345 5345 5346 5348 5349 5351 5354 5356 5359 5363 5367 5370 5375 5379 5384 5389 5395 5401 5407 5414 5420 5427 5433 5440 5447
5361 5359 5356 5354 5352 5350 5348 5346 5344 5342 5341 5340 5339 5339 5339 5339 5339 5339 5339 5340 5340 5341 5343 5344 5346 5348 5351 5355 5359 5362 5366 5371 5375 5380 5385 5391 5397 5404 5410 5417 5423 5430 5437 5444
5351 5349 5347 5345 5343 5341 5340 5338 5337 5335 5334 5333 5333 5333 5333 5333 5333 5334 5334 5334 5335 5336 5338 5340 5341 5344 5347 5351 5355 5358 5362 5367 5372 5377 5382 5388 5394 5400 5407 5414 5421 5428 5435 5441
5342 5340 5338 5337 5335 5333 5332 5330 5329 5328 5327 5327 5327 5327 5327 5327 5327 5328 5328 5329 5330 5332 5333 5335 5338 5340 5344 5348 5352 5355 5359 5364 5369 5374 5379 5385 5392 5398 5405 5412 5419 5426 5433 5440
5333 5331 5329 5328 5326 5325 5324 5322 5322 5321 5320 5320 5320 5320 5321 5321 5322 5322 5323 5325 5326 5328 5330 5332 5335 5338 5341 5345 5349 5353 5356 5361 5366 5371 5377 5384 5390 5397 5404 5411 5418 5425 5432 5439
Wind_Speed
39 39 40 40 40 39 40 41 42 41 40 38 36 35 34 33 32 31 30 28 26 26 26 25 24 24 25 26 27 29 33 35 34 34 39 40 41 43 45 46 46 45 43 44
40 40 41 41 39 39 40 40 41 41 39 37 36 35 34 33 32 31 30 28 26 25 25 24 24 23 24 25 26 27 31 34 36 36 37 38 40 42 44 44 45 45 42 41
42 41 42 41 39 39 40 41 41 41 39 37 35 35 34 33 32 31 29 28 26 25 24 24 24 24 25 25 27 28 30 33 35 36 37 38 40 41 43 44 45 45 43 42
45 44 43 41 41 41 41 40 40 41 39 38 36 35 34 33 32 31 29 27 26 24 24 24 26 26 26 26 27 29 31 33 36 37 37 38 40 42 43 43 43 45 43 42
46 47 46 42 42 42 41 39 39 39 39 39 37 35 33 32 32 32 29 27 26 24 24 25 27 27 27 26 27 28 29 32 35 36 37 38 40 42 42 41 42 44 43 42
47 47 47 44 43 43 42 40 39 39 39 38 37 35 32 32 32 31 29 27 26 25 24 24 26 27 27 28 27 27 28 31 33 35 36 37 39 41 41 40 40 43 43 43
46 47 47 44 43 43 42 41 41 40 39 39 37 36 34 33 31 30 28 28 27 26 24 25 26 27 27 28 28 28 29 31 33 34 35 37 38 39 41 40 41 42 43 44
46 47 45 43 43 42 42 41 41 40 40 39 37 35 34 33 31 30 29 28 28 27 26 26 27 27 27 28 28 28 29 31 33 33 34 35 37 38 40 40 40 42 43 43
46 45 43 42 42 42 41 41 40 40 40 39 37 35 34 33 32 30 29 28 27 26 26 26 26 27 27 28 28 28 29 31 32 33 34 35 36 37 38 39 40 40 41 42
45 42 41 41 42 41 41 41 40 40 40 39 37 35 34 33 32 30 29 27 25 25 24 24 26 27 27 27 28 27 28 30 32 34 35 36 36 36 38 38 39 39 40 40
43 41 40 40 41 41 41 41 40 40 40 38 36 35 34 32 30 29 28 26 24 24 23 23 24 26 27 27 27 26 27 28 30 33 34 34 35 35 36 37 37 39 40 39
42 41 42 41 40 41 41 40 40 40 39 37 35 34 33 31 29 28 27 25 23 23 22 22 23 25 26 26 26 26 27 28 30 32 33 34 35 36 36 36 37 38 38 38
42 41 42 41 41 41 41 41 40 40 38 36 34 33 31 30 28 27 25 23 22 22 21 21 21 23 25 25 26 26 27 28 29 31 33 34 36 36 36 34 36 37 38 38
41 42 42 42 41 40 40 40 40 38 37 35 33 31 30 29 27 26 24 22 21 20 20 20 20 22 23 24 25 25 26 27 28 30 32 34 36 36 35 34 35 37 39 39
41 42 42 41 40 39 38 38 38 36 35 33 31 30 29 28 26 24 21 20 19 19 19 19 20 20 22 23 23 24 24 26 28 29 31 33 35 36 35 35 35 36 38 39
41 41 40 39 37 36 37 36 35 34 33 31 30 29 28 26 24 21 20 19 19 18 19 19 19 20 21 21 22 23 23 24 26 28 30 32 33 34 35 36 37 37 37 37
39 38 36 35 34 34 33 33 33 32 31 29 28 26 25 23 21 20 20 19 18 18 18 19 20 21 21 21 22 23 24 24 25 27 29 32 32 32 34 36 37 37 37 37
35 34 33 32 32 31 31 31 31 30 29 28 26 24 22 20 19 19 19 18 17 17 18 20 21 21 21 21 22 23 24 25 26 27 29 30 31 31 32 35 36 36 37 37
33 33 32 31 31 30 30 30 30 29 27 25 23 21 20 19 18 19 19 18 17 17 18 20 20 21 20 21 21 22 24 25 26 27 29 30 30 31 31 33 35 36 36 36
32 31 31 31 30 30 29 29 28 27 25 23 21 19 18 18 18 18 18 17 17 17 18 19 20 21 20 21 21 22 23 25 26 27 28 28 29 29 31 32 33 34 36 37
31 30 30 30 30 30 29 28 27 25 23 21 19 18 18 17 17 17 17 16 17 17 16 18 20 21 22 22 22 23 24 25 26 27 28 28 29 29 30 32 33 33 34 36
30 30 30 30 29 28 28 27 25 24 22 21 19 18 17 17 16 15 15 15 16 16 16 17 19 21 21 22 23 23 24 25 26 26 27 28 28 29 30 32 32 32 33 34
30 30 30 29 28 28 26 25 24 23 21 20 18 18 17 16 16 15 14 14 15 15 16 17 19 20 21 22 22 23 24 25 25 26 26 27 28 29 30 31 30 31 33 32
30 30 29 28 27 26 25 24 23 22 20 19 18 18 16 16 15 15 14 14 15 15 16 17 18 19 21 22 22 23 24 24 24 25 26 27 28 29 29 30 30 31 31 31
30 29 28 27 26 25 24 23 22 21 19 18 18 18 17 16 15 15 14 14 15 15 16 16 17 19 20 21 22 22 23 24 24 25 26 27 28 29 30 30 30 30 31 31
29 29 28 27 26 25 23 22 21 20 19 18 18 17 17 16 15 14 13 14 14 15 15 16 17 18 19 20 20 21 22 23 24 25 26 27 29 30 30 30 30 30 30 31
28 28 27 26 25 24 22 21 20 19 19 18 17 16 16 15 14 14 13 13 14 14 15 15 17 19 20 20 20 20 21 22 24 26 27 27 28 29 30 30 30 31 31 31
Wind_Direction
312 314 314 314 316 316 316 316 316 318 317 318 314 312 311 309 307 303 299 294 285 279 273 268 264 260 257 250 242 233 226 219 218 217 215 215 217 216 214 214 215 217 218 219
310 311 311 312 315 315 315 315 315 316 317 315 313 312 311 309 305 303 299 293 286 278 271 265 261 259 253 247 238 230 227 223 221 220 216 216 216 215 215 216 218 219 220 219
309 310 309 312 315 314 313 313 314 314 316 314 312 312 311 308 305 303 299 292 285 277 269 264 259 256 250 243 234 229 228 225 223 223 220 219 216 214 215 218 221 221 220 219
308 308 309 314 313 312 311 312 313 313 313 313 312 311 310 307 303 301 298 291 284 277 269 263 257 253 247 245 239 233 231 229 225 224 223 220 216 215 217 219 220 219 218 220
306 307 309 312 312 312 311 312 312 311 312 311 310 308 307 303 300 298 296 291 285 278 271 263 257 252 247 246 240 234 232 230 226 224 223 221 218 217 218 219 218 217 218 220
306 306 308 312 311 310 310 311 311 310 311 311 310 308 307 301 297 295 292 289 284 279 271 263 256 253 248 245 241 236 233 230 227 225 223 221 220 219 219 217 216 217 219 219
304 305 307 310 310 309 309 310 310 310 311 310 309 308 307 304 299 294 290 287 283 277 271 262 256 253 249 243 241 238 235 231 228 226 225 223 220 219 218 217 217 218 219 218
303 303 307 308 306 307 307 308 308 309 310 309 308 306 305 303 300 295 291 287 282 275 270 262 255 251 247 242 240 238 234 230 228 227 225 222 219 218 218 217 216 217 218 218
300 303 304 304 304 305 306 306 307 307 308 307 306 305 304 302 299 295 292 289 282 276 269 261 253 248 244 240 239 238 233 230 228 226 225 223 220 218 217 216 214 215 215 216
299 301 301 301 302 303 303 304 306 307 307 306 304 303 303 300 298 294 292 289 282 276 269 260 251 245 242 239 236 235 233 230 228 226 224 222 218 217 217 216 215 216 215 216
298 299 298 299 300 300 301 303 304 305 305 304 302 301 301 299 296 293 290 286 280 275 268 258 250 243 240 240 237 233 232 231 228 224 220 218 216 215 215 215 215 214 215 216
298 298 298 299 298 299 300 301 302 303 303 302 300 299 298 297 295 292 288 281 277 272 266 259 251 243 240 239 238 235 233 230 226 221 218 217 215 213 212 212 213 213 213 213
297 297 297 298 298 298 300 301 301 302 302 300 298 298 297 296 294 292 287 278 275 270 263 255 248 243 240 237 235 234 232 228 224 220 217 215 214 213 210 211 212 212 211 210
295 295 296 297 297 297 298 300 301 301 300 298 297 296 296 294 293 290 284 277 273 266 258 251 244 242 239 233 231 229 227 225 221 217 215 214 214 212 210 209 210 211 211 209
295 295 296 296 296 296 297 299 301 300 297 296 296 295 294 292 290 286 280 275 270 261 254 247 243 239 236 231 228 228 225 222 220 218 216 215 213 212 211 209 208 208 208 209
295 296 296 295 295 296 298 299 300 299 297 295 295 294 293 290 286 280 275 272 266 258 251 244 237 234 232 231 229 226 223 219 217 216 215 213 212 212 210 208 209 207 206 208
296 297 297 296 296 297 298 299 300 300 297 295 294 292 290 287 282 277 272 268 263 255 246 238 234 233 232 230 227 224 220 216 214 214 213 212 212 210 208 207 209 209 209 211
295 296 296 296 297 297 298 299 299 298 296 294 293 291 288 284 279 274 271 266 261 252 243 237 233 232 230 228 225 222 217 214 213 212 212 210 210 211 210 207 206 208 209 210
295 295 295 297 297 298 298 298 299 298 295 292 291 289 286 281 276 273 269 264 258 251 242 235 232 230 227 224 223 220 216 213 210 211 210 209 210 211 211 208 207 207 208 208
296 296 297 297 298 298 298 298 298 297 294 290 287 284 282 279 275 271 268 264 256 248 239 231 227 225 224 222 221 218 216 213 210 209 209 210 210 209 209 208 206 207 207 205
295 296 297 298 298 298 298 297 296 295 292 287 282 279 277 277 276 272 268 263 255 246 237 229 226 224 222 220 217 216 216 213 210 210 210 210 209 207 206 206 206 206 205 203
296 296 297 298 298 298 297 297 295 293 291 285 278 275 275 275 275 273 267 259 251 244 235 228 227 224 220 217 215 215 214 211 209 209 210 208 206 205 203 203 205 205 203 201
296 296 297 297 296 296 295 294 293 291 289 282 274 272 272 273 271 267 259 254 249 242 235 230 226 223 219 216 214 212 209 208 207 206 207 205 204 202 201 200 202 203 202 200
295 295 295 296 295 294 293 291 291 288 285 279 271 267 267 267 265 261 256 252 248 241 234 229 225 221 217 214 210 207 206 205 204 204 204 202 200 198 198 198 199 199 199 197
294 293 293 293 293 293 291 289 288 286 282 276 268 263 263 262 260 256 255 253 246 237 230 225 218 213 209 208 205 203 203 202 200 199 198 196 194 193 195 195 194 194 195 193
293 291 291 291 291 291 289 287 284 281 277 272 264 259 258 258 256 252 250 244 237 228 221 214 208 202 199 199 200 200 199 198 198 195 193 192 191 191 191 191 191 192 193 190
292 290 289 289 289 289 287 284 280 277 274 269 262 256 254 251 249 245 240 232 226 218 212 207 201 198 197 197 197 195 194 195 195 191 189 188 187 188 189 189 190 191 190 189